Weather History for Greensboro, NC

Change the Weather History Date:

Saturday, June 29, 2013

  Actual Average Record
Temperature  
Mean Temperature 77 °F 78 °F  
Max Temperature 85 °F 87 °F 102 °F (2012)
Min Temperature 68 °F 68 °F 54 °F (1981)
Degree Days  
Heating Degree Days 0 0  
Month to date heating degree days 0 5  
Since 1 June heating degree days 0 5  
Since 1 July heating degree days 3637 3617  
Cooling Degree Days 12 13  
Month to date cooling degree days 287 294  
Year to date cooling degree days 437 453  
Since 1 June cooling degree days 287 294  
Growing Degree Days 26 (Base 50)    
Moisture  
Dew Point 68 °F    
Average Humidity 74    
Maximum Humidity 100    
Minimum Humidity 48    
Precipitation  
Precipitation T in 0.12 in 1.50 in (1995)
Month to date precipitation 8.06 3.61  
Year to date precipitation 26.41 20.31  
Sea Level Pressure  
Sea Level Pressure 29.65 in    
Wind  
Wind Speed 7 mph (SW)    
Max Wind Speed 17 mph    
Max Gust Speed 26 mph    
Visibility 8 miles    
Events Rain    
T = Trace of Precipitation, MM = Missing Value Source: NWS Daily Summary

Daily Weather History Graph

Daily Weather History Graph

Search for Another Location

Airport:

Trip Planner

Search our weather history database for the weather conditions in past years. The results will help you decide how hot, cold, wet, or windy it might be!

Date:

Astronomy

Jun. 29, 2013 Rise Set
Actual Time 6:05 AM EDT 8:40 PM EDT
Civil Twilight 5:35 AM EDT 9:11 PM EDT
Nautical Twilight 4:57 AM EDT 9:48 PM EDT
Astronomical Twilight 4:16 AM EDT 10:30 PM EDT
Moon 12:21 AM EDT (6/29) 1:01 PM EDT (6/29)
Length of Visible Light 15h 35m
Length of Day
14h 35m
Waning Gibbous, 56% of the Moon is Illuminated
Jun 29
Waning Gibbous
Jun 30
Last Quarter
Jul 8
New
Jul 15
First Quarter
Jul 22
Full

Hourly Weather History & Observations

Time (EDT) Temp. Heat Index Dew Point Humidity Pressure Visibility Wind Dir Wind Speed Gust Speed Precip Events Conditions
12:16 AM 69.8 °F - 68.0 °F 94% 29.66 in 10.0 mi South 5.8 mph - 0.01 in Rain Light Rain
12:54 AM 70.0 °F - 68.0 °F 93% 29.62 in 10.0 mi NW 5.8 mph - 0.01 in   Mostly Cloudy
1:54 AM 68.0 °F - 66.9 °F 96% 29.61 in 10.0 mi WSW 5.8 mph - N/A   Scattered Clouds
2:17 AM 68.0 °F - 66.2 °F 94% 29.65 in 9.0 mi WSW 5.8 mph - N/A   Mostly Cloudy
2:38 AM 68.0 °F - 66.2 °F 94% 29.64 in 2.0 mi SW 4.6 mph - N/A   Overcast
2:54 AM 68.0 °F - 66.9 °F 96% 29.60 in 4.0 mi West 3.5 mph - N/A   Overcast
3:09 AM 68.0 °F - 68.0 °F 100% 29.63 in 2.0 mi WSW 3.5 mph - N/A   Overcast
3:15 AM 68.0 °F - 68.0 °F 100% 29.63 in 0.8 mi WSW 4.6 mph - N/A   Overcast
3:26 AM 68.0 °F - 68.0 °F 100% 29.64 in 1.2 mi SW 5.8 mph - N/A   Overcast
3:41 AM 68.0 °F - 68.0 °F 100% 29.64 in 2.0 mi SSW 6.9 mph - N/A   Overcast
3:54 AM 68.0 °F - 68.0 °F 100% 29.61 in 2.5 mi SSW 6.9 mph - N/A   Overcast
4:01 AM 68.0 °F - 68.0 °F 100% 29.65 in 5.0 mi SW 6.9 mph - N/A   Overcast
4:54 AM 69.1 °F - 68.0 °F 96% 29.62 in 6.0 mi WSW 8.1 mph - N/A   Overcast
5:54 AM 69.1 °F - 68.0 °F 96% 29.62 in 6.0 mi SW 5.8 mph - N/A   Overcast
6:54 AM 70.0 °F - 68.0 °F 93% 29.65 in 4.0 mi SSW 4.6 mph - N/A   Overcast
7:54 AM 70.0 °F - 68.0 °F 93% 29.66 in 6.0 mi WSW 4.6 mph - N/A   Mostly Cloudy
8:12 AM 71.6 °F - 68.0 °F 88% 29.69 in 7.0 mi WSW 4.6 mph - N/A   Mostly Cloudy
8:54 AM 73.9 °F - 69.1 °F 85% 29.66 in 10.0 mi SSW 4.6 mph - N/A   Scattered Clouds
9:54 AM 75.9 °F - 69.1 °F 79% 29.66 in 10.0 mi Calm Calm - N/A   Clear
9:59 AM 77.0 °F - 69.8 °F 78% 29.69 in 10.0 mi Calm Calm - N/A   Partly Cloudy
10:54 AM 79.0 °F - 66.9 °F 66% 29.66 in 10.0 mi South 3.5 mph - N/A   Scattered Clouds
11:54 AM 81.0 °F 83.0 °F 66.0 °F 60% 29.66 in 10.0 mi WSW 5.8 mph - N/A   Mostly Cloudy
12:54 PM 82.9 °F 83.7 °F 62.1 °F 49% 29.66 in 10.0 mi SW 6.9 mph - N/A   Mostly Cloudy
1:54 PM 84.9 °F 85.4 °F 62.1 °F 46% 29.65 in 10.0 mi Variable 6.9 mph - N/A   Mostly Cloudy
2:54 PM 82.0 °F 83.8 °F 64.9 °F 56% 29.65 in 10.0 mi WSW 6.9 mph - 0.00 in   Mostly Cloudy
3:54 PM 84.0 °F 86.5 °F 66.9 °F 56% 29.64 in 10.0 mi SSW 8.1 mph - N/A   Mostly Cloudy
4:54 PM 84.0 °F 87.8 °F 69.1 °F 61% 29.64 in 10.0 mi South 13.8 mph - N/A   Mostly Cloudy
5:54 PM 82.0 °F 84.5 °F 66.9 °F 60% 29.64 in 10.0 mi South 13.8 mph - N/A   Mostly Cloudy
6:54 PM 81.0 °F 84.1 °F 69.1 °F 67% 29.65 in 10.0 mi South 8.1 mph - N/A   Scattered Clouds
7:54 PM 80.1 °F 82.7 °F 68.0 °F 67% 29.67 in 10.0 mi South 12.7 mph - N/A   Partly Cloudy
8:54 PM 77.0 °F - 69.1 °F 76% 29.67 in 10.0 mi South 6.9 mph - N/A   Scattered Clouds
9:54 PM 77.0 °F - 70.0 °F 79% 29.68 in 10.0 mi South 8.1 mph - N/A   Scattered Clouds
10:54 PM 75.9 °F - 71.1 °F 85% 29.70 in 10.0 mi South 8.1 mph - N/A   Mostly Cloudy
11:54 PM 75.0 °F - 71.1 °F 87% 29.70 in 10.0 mi SSW 8.1 mph - N/A   Scattered Clouds